Location: Newport
(44.6370°N, 124.0520°W)
Time: 10:41:37
(UTC-08:00)

Vanguard 2 Rocket - Visible Passes

Search period start: 18 December 2017 00:00
Search period end: 28 December 2017 00:00
Orbit: 556 x 3326 km, 32.9° (Epoch: 17 December)

Date Brightness Start Highest point End Pass type
(mag) Time Alt. Az. Time Alt. Az. Time Alt. Az.
18 Dec 9.2 18:16:07 10° SW 18:25:08 41° SSE 18:35:17 19° ESE visible
18 Dec 9.3 20:27:52 10° WSW 20:39:57 53° S 20:41:05 53° SSE visible
18 Dec 10.2 22:41:40 10° W 22:46:53 26° WSW 22:46:53 26° WSW visible
19 Dec 9.3 17:18:03 10° SSW 17:25:30 31° SSE 17:37:08 10° E visible
19 Dec 9.2 19:28:48 10° WSW 19:39:17 51° S 19:44:52 39° SE visible
19 Dec 9.7 21:41:45 10° W 21:50:40 42° SW 21:50:40 42° SW visible
20 Dec 9.1 18:30:07 10° SW 18:39:03 45° SSE 18:48:41 22° ESE visible
20 Dec 9.3 20:42:15 10° WSW 20:54:04 51° S 20:54:30 51° S visible
20 Dec 10.4 22:56:26 10° W 23:00:18 21° WSW 23:00:18 21° WSW visible
21 Dec 9.1 17:31:47 10° SW 17:39:18 37° SSE 17:51:34 10° E visible
21 Dec 9.1 19:43:07 10° WSW 19:53:24 50° S 19:58:21 40° SE visible
21 Dec 9.8 21:56:22 10° W 22:04:10 35° SW 22:04:10 35° SW visible
22 Dec 9.0 18:44:19 10° WSW 18:53:08 47° S 19:02:15 23° ESE visible
22 Dec 9.4 20:56:47 10° W 21:08:04 45° SSW 21:08:04 45° SSW visible
22 Dec 10.5 23:11:36 10° W 23:13:52 15° WSW 23:13:52 15° WSW visible
23 Dec 9.0 17:45:50 10° SW 17:53:17 41° SSE 18:05:48 10° E visible
23 Dec 9.2 19:57:35 10° WSW 20:07:36 47° S 20:12:01 39° SSE visible
23 Dec 10.0 22:11:14 10° W 22:17:50 28° SW 22:17:50 28° SW visible
24 Dec 9.0 18:58:41 10° WSW 19:07:19 46° S 19:16:01 24° ESE visible
24 Dec 9.6 21:11:28 10° W 21:21:51 38° SSW 21:21:51 38° SSW visible
24 Dec 10.7 23:27:35 10° WSW 23:27:40 10° WSW 23:27:40 10° WSW visible
25 Dec 8.9 18:00:04 10° WSW 18:07:26 43° S 18:19:52 10° ESE visible
25 Dec 9.4 20:12:10 10° WSW 20:21:49 41° SSW 20:25:57 35° SSE visible
25 Dec 10.3 22:26:34 10° WSW 22:31:47 21° SW 22:31:47 21° SW visible
26 Dec 8.8 17:01:44 10° SW 17:07:54 36° SSE 17:18:02 10° ESE visible
26 Dec 9.1 19:13:11 10° WSW 19:21:35 42° S 19:30:07 22° SE visible
26 Dec 9.9 21:26:29 10° WSW 21:35:58 30° SSW 21:35:58 30° SSW visible
27 Dec 8.9 18:14:30 10° WSW 18:21:40 41° S 18:33:46 10° ESE visible
27 Dec 9.6 20:26:57 10° WSW 20:36:04 34° SSW 20:40:16 29° S visible
27 Dec 10.5 22:42:58 10° WSW 22:46:07 15° SW 22:46:07 15° SW visible
